Regional Weather Roundup
Issued by NWS Upton, NY

Current Version | Previous Version | Graphics & Text | Print | Product List | Glossary On
Versions: 1 2 3 4 5 6 7 8 9 10 11 12 13 14 15 16 17 18 19 20 21 22 23 24 25 26 27 28 29 30 31 32 33 34 35 36 37 38 39 40 41 42 43 44 45 46 47 48 49 50
000
ASUS41 KOKX 251818
RWROKX

REGIONAL WEATHER ROUNDUP
NATIONAL WEATHER SERVICE NEW YORK NY
200 PM EDT MON MAY 25 2015

NOTE: "FAIR" INDICATES FEW OR NO CLOUDS BELOW 12,000 FEET WITH NO
SIGNIFICANT WEATHER AND/OR OBSTRUCTIONS TO VISIBILITY.

NYZ071-072-176-178-NJZ106-104-251900-
NEW YORK CITY METRO AREA


CITY           SKY/WX    TMP DP  RH WIND       PRES   REMARKS
CENTRAL PARK   SUNNY     85  58  39 MISG      30.23F
LAGUARDIA APRT MOSUNNY   82  58  43 S13       30.20F
KENNEDY INTL   MOSUNNY   75  58  55 S9        30.24F
NEWARK/LIBERTY MOSUNNY   88  54  31 S14G23    30.19F
BRNX BOT. GARD   N/A     81  59  47 SE7       30.20F
TETERBORO      SUNNY     87  55  33 S16       30.18F
$$

NYZ177-179-078>081-251900-
LONG ISLAND NEW YORK

CITY           SKY/WX    TMP DP  RH WIND       PRES   REMARKS
FARMINGDALE    MOSUNNY   75  60  59 S12       30.24F
ISLIP          PTSUNNY   72  58  61 S12       30.23F
SHIRLEY        SUNNY     72  58  61 SW15      30.25F
WESTHAMPTON    SUNNY     69  57  65 SW10G17   30.27F
MONTAUK POINT    N/A     66  56  70 S12       30.27F
$$

NYZ052-065-067-251900-
HUDSON VALLEY

CITY           SKY/WX    TMP DP  RH WIND       PRES   REMARKS
WHITE PLAINS   MOSUNNY   81  59  47 S10G23    30.20F
NEWBURGH       MOSUNNY   82  61  47 SW7G23    30.18F
MONTGOMERY     NOT AVBL
POUGHKEEPSIE   MOSUNNY   84  58  40 S9G18     30.15F
ALBANY         PTSUNNY   80  54  40 S12G23    30.13F
$$

NJZ001-105-106-008-010-013-015-019>022-104-251900-
NEW JERSEY

CITY           SKY/WX    TMP DP  RH WIND       PRES   REMARKS
NEWARK/LIBERTY MOSUNNY   88  54  31 S14G23    30.19F
TETERBORO      SUNNY     87  55  33 S16       30.18F
CALDWELL       SUNNY     85  54  34 SW8       30.18F
MORRISTOWN     SUNNY     86  54  32 SW13G23   30.19F
SOMERVILLE     SUNNY     85  54  34 S10G21    30.18F
SUSSEX         SUNNY     84  56  38 SW16G22   30.18F
ANDOVER          N/A     84  54  35 S9G17     30.19F
TRENTON        SUNNY     85  55  35 SW14G25   30.21F
MILLVILLE      SUNNY     82  58  43 S10G23    30.25F
ATLANTIC CITY  SUNNY     84  57  39 SW16G25   30.25F
WRIGHTSTOWN    SUNNY     86  56  35 SW14G23   30.19F
TOMS RIVER     MOSUNNY  N/A N/A N/A SW18G25   30.22F
BELMAR         MOSUNNY   84  55  37 SW14G22   30.22F
$$

PAZ047>061-062-071-251900-
EASTERN PENNSYLVANIA

CITY           SKY/WX    TMP DP  RH WIND       PRES   REMARKS
PHILADELPHIA   MOSUNNY   86  54  33 SW17      30.22F
ALLENTOWN      SUNNY     87  54  32 SW13G22   30.18F
SCRANTON       SUNNY     85  54  34 VRB3G20   30.16F
$$

CTZ002-004>006-009-010-012-RIZ004-006-007-MAZ004-011-015-251900-
SOUTHERN NEW ENGLAND
 IN CT

CITY           SKY/WX    TMP DP  RH WIND       PRES   REMARKS
BRADLEY INTL   PTSUNNY   82  56  40 S12       30.17F
HARTFORD       MOSUNNY   83  55  38 S12G26    30.18F
DANBURY        SUNNY     80  56  43 S15G21    30.21F
WTRBRY/OXFORD  MOSUNNY   79  61  53 SW10G21   30.23
BRIDGEPORT     MOSUNNY   70  58  65 E9        30.22F
MERIDEN        MOSUNNY   83  55  38 S17G25    30.20F
NEW HAVEN      MOSUNNY   75  58  55 E13       30.22F
CHESTER        DRIZZLE   79  59  50 S14       30.23F
GROTON         SUNNY     68  57  68 S10       30.24F
WILLIMANTIC    MOSUNNY   83  55  38 S16G25    30.20F

 IN RI

CITY           SKY/WX    TMP DP  RH WIND       PRES   REMARKS
PROVIDENCE     PTSUNNY   74  57  55 SE12      30.23F
BLOCK ISLAND   MOSUNNY   64  54  68 SW16      30.28F
WESTERLY       SUNNY     71  56  58 S10       30.26F

 IN MA

CITY           SKY/WX    TMP DP  RH WIND       PRES   REMARKS
BOSTON         CLOUDY    79  49  34 SW10G20   30.20F
WORCESTER      CLOUDY    71  56  58 S9        30.24F
WESTFIELD      CLOUDY    76  58  53 VRB5      30.19F
PROVINCETOWN   CLOUDY    68  54  60 SW16G23   30.24F
NANTUCKET      CLOUDY    63  54  72 SW13      30.29F
$$

ANZ330-335-338-340-345-350-353-355-251900-
COASTAL MARINE OBSERVATIONS


STATION/POSITION TIME  SKY/WX   TEMP    WIND        PRES    VSBY  WAVE
                                AIR SEA DIR/SP/G                  HT/PER
                 (UTC)          (F)     (DEG/KT/KT) (MB)    (MI)  (FT/S)
NY HARB ENTRANCE 1750            61 58  170/ 12/ 16 1023.2          2/ 5
4S FIRE IS       1703               55                N/A           2/ 5
20S FIRE ISLAND  1750            59 56  200/ 12/ 12 1024.4          2/ 5
GREAT SOUTH BAY  1700            61 65  230/  6/  8   N/A
23SW MTP         1750            57 54  210/ 10/ 10 1025.0          2/ 5
HUDSON CANYON    NOT AVBL
KINGS POINT      1700            74 61  210/ 11/ 14 1022.9
CENTRAL LI SOUND 1700            59 56   60/  6/  6   N/A
EASTERN LI SOUND 1700            58     160/  6/  8   N/A
ROBBINS REEF     1700            68     170/ 15/ 16 1022.3
$$


>>>>>>>>>>>>>>>>>>>>>>>>>>>> KEY <<<<<<<<<<<<<<<<<<<<<<<<<<<
>                                                          <
>     SKY/WX - SKY CONDITION/PRESENT WEATHER               <
>     TMP    - TEMPERATURE IN FAHRENHEIT                   <
>     DP     - DEWPOINT IN FAHRENHEIT                      <
>     RH     - RELATIVE HUMIDITY IN PERCENT                <
>     WIND   - DIRECTION AND SPEED IN MPH                  <
>     PRES   - MEAN SEA LEVEL PRESSURE IN INCHES OF HG     <
>     WCI    - WIND CHILL INDEX                            <
>     VSB    - VISIBILITY IN MILES                         <
>     HX     - HEAT INDEX                                  <
>     TC     - TEMPERATURE IN CELSIUS                      <
>     VRB    - VARIABLE WIND DIRECTION                     <
>                                                          <
>>>>>>>>>>>>>>>>>>>>>>>>>>>> KEY <<<<<<<<<<<<<<<<<<<<<<<<<<<




USA.gov is the U.S. government's official web portal to all federal, state and local government web resources and services.